Norfork Lake Weather Center

Moon Phase Calendar



Norfork Lake Water Level
Online Cameras

 


      

Current Conditions in Baxter
9/25/2022 12:16:00 AM

71°F
Feels Like 72
Clouds
Humidity
100%
Pressure
29.83"
Wind
4.3 mph (W)
Dew Point
71°F
UV Index
0/10 (Low)
Visibility
6 mi

Hourly Forecast

Date & Time Sun, Sep 25
12:00 AM
Sun, Sep 25
1:00 AM
Sun, Sep 25
2:00 AM
Sun, Sep 25
3:00 AM
Sun, Sep 25
4:00 AM
Sun, Sep 25
5:00 AM
Sun, Sep 25
6:00 AM
Sun, Sep 25
7:00 AM
Sun, Sep 25
8:00 AM
Sun, Sep 25
9:00 AM
Sun, Sep 25
10:00 AM
Sun, Sep 25
11:00 AM
Sun, Sep 25
12:00 PM
Sun, Sep 25
1:00 PM
Sun, Sep 25
2:00 PM
Sun, Sep 25
3:00 PM
Sun, Sep 25
4:00 PM
Sun, Sep 25
5:00 PM
Sun, Sep 25
6:00 PM
Sun, Sep 25
7:00 PM
Sun, Sep 25
8:00 PM
Sun, Sep 25
9:00 PM
Sun, Sep 25
10:00 PM
Sun, Sep 25
11:00 PM
Mon, Sep 26
12:00 AM
Mon, Sep 26
1:00 AM
Mon, Sep 26
2:00 AM
Mon, Sep 26
3:00 AM
Mon, Sep 26
4:00 AM
Mon, Sep 26
5:00 AM
Mon, Sep 26
6:00 AM
Mon, Sep 26
7:00 AM
Mon, Sep 26
8:00 AM
Mon, Sep 26
9:00 AM
Mon, Sep 26
10:00 AM
Mon, Sep 26
11:00 AM
Mon, Sep 26
12:00 PM
Mon, Sep 26
1:00 PM
Mon, Sep 26
2:00 PM
Mon, Sep 26
3:00 PM
Mon, Sep 26
4:00 PM
Mon, Sep 26
5:00 PM
Mon, Sep 26
6:00 PM
Mon, Sep 26
7:00 PM
Mon, Sep 26
8:00 PM
Mon, Sep 26
9:00 PM
Mon, Sep 26
10:00 PM
Mon, Sep 26
11:00 PM
Condition
Clouds

Clouds

Clouds

Rain

Rain

Clouds

Clouds

Clouds

Clear

Clear

Clear

Clear

Clear

Clear

Clear

Clear

Clear

Clear

Clear

Clear

Clear

Clear

Clear

Clear

Clear

Clear

Clear

Clear

Clear

Clear

Clear

Clear

Clear

Clear

Clear

Clear

Clear

Clear

Clear

Clear

Clear

Clear

Clear

Clear

Clear

Clear

Clear

Clear
Temperature 71°F70°F69°F67°F66°F65°F63°F63°F64°F69°F74°F80°F82°F84°F85°F85°F85°F83°F79°F70°F67°F65°F62°F61°F59°F58°F57°F56°F55°F55°F54°F53°F56°F63°F68°F73°F76°F78°F80°F80°F80°F79°F74°F65°F62°F60°F59°F57°F
Feels Like 72°F71°F70°F68°F67°F65°F64°F63°F64°F68°F74°F80°F80°F82°F82°F82°F82°F81°F77°F68°F65°F63°F61°F59°F57°F56°F55°F54°F53°F52°F51°F50°F54°F60°F66°F71°F75°F77°F80°F79°F80°F77°F72°F63°F59°F58°F56°F54°F
Cloudiness 47%47%43%46%55%54%43%36%0%0%0%0%0%0%0%0%1%2%3%3%4%5%5%4%3%2%0%0%0%0%0%0%0%0%0%0%0%0%0%0%0%0%0%0%0%0%0%0%
Visibility 6 mi6 mi6 mi6 mi6 mi6 mi6 mi6 mi6 mi6 mi6 mi6 mi6 mi6 mi6 mi6 mi6 mi6 mi6 mi6 mi6 mi6 mi6 mi6 mi6 mi6 mi6 mi6 mi6 mi6 mi6 mi6 mi6 mi6 mi6 mi6 mi6 mi6 mi6 mi6 mi6 mi6 mi6 mi6 mi6 mi6 mi6 mi6 mi
Precipitation 0%0%67%70%65%62%58%50%0%0%0%0%0%0%0%0%0%0%0%0%0%0%0%0%0%0%0%0%0%0%0%0%0%0%0%0%0%0%0%0%0%0%0%0%0%0%0%0%
Humidity 100%94%92%94%92%90%92%93%88%70%45%32%27%25%24%23%22%23%28%38%40%42%46%48%49%49%49%50%51%51%52%52%51%40%33%27%22%18%16%16%16%19%26%35%37%37%38%40%
Dew Point 71°F68°F66°F65°F64°F62°F61°F60°F60°F58°F52°F47°F45°F45°F45°F43°F41°F42°F43°F43°F42°F41°F41°F41°F40°F39°F38°F37°F37°F37°F36°F36°F38°F38°F38°F37°F34°F32°F30°F30°F31°F33°F37°F36°F35°F34°F33°F33°F
Pressure 29.83"29.83"29.85"29.88"29.88"29.88"29.88"29.91"29.94"29.94"29.97"29.97"29.97"29.97"29.94"29.91"29.91"29.91"29.94"29.94"29.97"29.97"30"30"30"30"30"30"30"30.03"30.06"30.06"30.09"30.09"30.09"30.09"30.09"30.06"30.03"30"30"30"30"30.03"30.03"30.06"30.06"30.06"
Wind Speed 4.3 mph4.4 mph4.2 mph5.5 mph4.7 mph4.6 mph5.2 mph4.8 mph4.8 mph6.6 mph8.9 mph10.4 mph10.2 mph10.6 mph10.8 mph10.9 mph11.9 mph10.6 mph8.8 mph5.3 mph4.6 mph4.8 mph4.5 mph4.1 mph3.7 mph3.1 mph3.1 mph3.7 mph3.4 mph3.6 mph4.4 mph3.6 mph3.4 mph4.2 mph4.7 mph5 mph6.5 mph7.7 mph8.4 mph9.5 mph9.6 mph8.8 mph7.2 mph5.1 mph4.1 mph3.4 mph2.4 mph2.1 mph
Wind
Direction
259°
W
250°
WSW
287°
WNW
280°
W
277°
W
297°
WNW
320°
NW
320°
NW
328°
NNW
344°
NNW
358°
N
358°
N
350°
N
342°
NNW
340°
NNW
337°
NNW
337°
NNW
344°
NNW
350°
N
349°
N
343°
NNW
339°
NNW
342°
NNW
344°
NNW
344°
NNW
327°
NNW
308°
NW
283°
WNW
286°
WNW
305°
NW
316°
NW
317°
NW
304°
NW
316°
NW
330°
NNW
335°
NNW
333°
NNW
333°
NNW
338°
NNW
345°
NNW
347°
NNW
351°
N

N
15°
NNE
18°
NNE

N
349°
N
315°
NW

Daily Forecast

Date High Low Precip. Humidity
Today
Sep 25

Rain
85 °F
61 °F
70%
25%
Monday
Sep 26

Clear
80 °F
53 °F
0%
18%
Tuesday
Sep 27

Clear
84 °F
51 °F
0%
19%
Wednesday
Sep 28

Clear
76 °F
53 °F
0%
26%
Thursday
Sep 29

Clear
74 °F
44 °F
0%
27%
Friday
Sep 30

Clear
79 °F
45 °F
0%
24%
Saturday
Oct 1

Clear
84 °F
48 °F
0%
22%
Sunday
Oct 2

Clouds
88 °F
56 °F
0%
21%
Monday
Oct 3

Clear
79 °F
56 °F
3%
31%
Tuesday
Oct 4

Clear
73 °F
45 °F
3%
38%
Wednesday
Oct 5

Clouds
75 °F
46 °F
0%
33%
Thursday
Oct 6

Clouds
80 °F
51 °F
0%
29%
Friday
Oct 7

Clear
84 °F
55 °F
0%
24%
Saturday
Oct 8

Rain
72 °F
61 °F
38%
63%
Sunday
Oct 9

Clouds
60 °F
46 °F
18%
47%
Monday
Oct 10

Clear
70 °F
40 °F
0%
18%

Temperature 8-14 Day Outlook



Precipitation 8-14 Day Outlook






About Us
Contact Us
Site Map
Search Site
Advertise With Us
   
Norfork.USLakes.info
THE NORFORK LAKE WEBSITE

Copyright 2022, Lakes Online
Privacy    |    Legal